Regional Weather Roundup
Issued by NWS Green Bay, WI

Home | Current Version | Previous Version | Graphics & Text | Print | Product List | Glossary Off
Versions: 1 2 3 4 5 6 7 8 9 10 11 12 13 14 15 16 17 18 19 20 21 22 23 24 25 26 27 28 29 30 31 32 33 34 35 36 37 38 39 40 41 42 43 44 45 46 47 48 49 50

000
ASUS43 KGRB 211759
RWRGRB

NORTH-CENTRAL AND NORTHEAST WISCONSIN REGIONAL WEATHER ROUNDUP
NATIONAL WEATHER SERVICE GREEN BAY WI
100 PM CDT TUE OCT 21 2014

WIZ005-009-010>012-018-019-211900-
NORTH CENTRAL WISCONSIN

CITY           SKY/WX    TMP DP  RH WIND       PRES   REMARKS
IRONWOOD       PTSUNNY   43  34  70 CALM      30.23F
MANITOWISH WTR NOT AVBL
ARBOR VITAE    NOT AVBL
EAGLE RIVER    NOT AVBL
LAND O LAKES   NOT AVBL
RHINELANDER    CLOUDY    43  34  70 N6        30.25F
PHILLIPS       NOT AVBL
ANTIGO         NOT AVBL
TOMAHAWK       NOT AVBL
MERRILL        NOT AVBL
$$

WIZ013-073-211900-
NORTHEAST WISCONSIN

CITY           SKY/WX    TMP DP  RH WIND       PRES   REMARKS
IRON MOUNTAIN  SUNNY     47  31  53 N7        30.23F
MARINETTE      MOSUNNY   50  34  53 E13       30.23S
$$

WIZ017-030-035>037-045-211900-
CENTRAL WISCONSIN

CITY           SKY/WX    TMP DP  RH WIND       PRES   REMARKS
MEDFORD        NOT AVBL
WAUSAU         PTSUNNY   48  35  60 VRB3      30.23F
MOSINEE        NOT AVBL
MARSHFIELD     PTSUNNY   48  37  65 VRB6      30.24S
WISC RAPIDS    CLOUDY    47  35  63 VRB5      30.26F
STEVENS POINT  NOT AVBL
WAUPACA        NOT AVBL
SHAWANO        NOT AVBL
CLINTONVILLE   NOT AVBL
$$

WIZ038-039-048-051-211900-
FOX VALLEY

CITY           SKY/WX    TMP DP  RH WIND       PRES   REMARKS
NWS GREEN BAY  SUNNY     49  35  58 NE12      30.24F
APPLETON       PTSUNNY   46  34  61 N9        30.24S
OSHKOSH        CLOUDY    47  36  65 NE9       30.24S
FOND DU LAC    CLOUDY    46  37  71 NE14      30.24S
$$

WIZ022-050-052-211900-
EAST CENTRAL WISCONSIN

CITY           SKY/WX    TMP DP  RH WIND       PRES   REMARKS
STURGEON BAY   PTSUNNY   48  34  57 N14       30.23F
MANITOWOC      NOT AVBL
SHEBOYGAN      PTSUNNY   50  36  58 NE14      30.22S
$$

LMZ563-521-522-541>543-211900-
LAKESHORE

STATION/POSITION TIME  TEMP    WIND        PRES    VSBY  WAVE
                       AIR SEA DIR/SP/G                  HT/PER
                 (UTC) (F)     (DEG/KT/KT) (MB)    (MI)  (FT/S)
SHEBOYGAN LKSHOR 1700   46 49   10/ 19/ 21 1023.8R
KEWAUNEE LKSHORE 1700           30/ 13/ 16   N/A
NORTHPORT PIER   1700   47      20/ 10/ 17 1023.7S
N MID LAKE BUOY  1700   44 51   10/ 14/ 16 1023.8R         3/ 5
CHAMBERS ISLAND  1700   48      10/ 13/ 16 1023.7F
MENOMINEE LKSHOR 1700           40/ 11/ 12   N/A
$$



USA.gov is the U.S. government's official web portal to all federal, state and local government web resources and services.